Time,TemperatureF,DewpointF,PressureIn,WindDirection,WindDirectionDegrees,WindSpeedMPH,WindSpeedGustMPH,Humidity,HourlyPrecipIn,Conditions,Clouds,dailyrainin,SoftwareType,DateUTC
2013-03-02 00:01:00,24.4,17.7,29.86,NW,307,7.6,8.3,75,0.00,,,0.00,VWS V14.01,2013-03-02 05:01:00,
2013-03-02 00:03:00,24.3,17.5,29.86,NW,316,8.1,11.4,75,0.00,,,0.00,VWS V14.01,2013-03-02 05:03:00,
2013-03-02 00:05:00,24.3,17.5,29.86,NW,319,5.4,11.4,75,0.00,,,0.00,VWS V14.01,2013-03-02 05:05:00,
2013-03-02 00:07:00,24.3,17.5,29.86,WNW,284,9.6,14.1,75,0.00,,,0.00,VWS V14.01,2013-03-02 05:07:00,
2013-03-02 00:12:00,24.3,17.5,29.86,NW,311,8.3,8.3,75,0.00,,,0.00,VWS V14.01,2013-03-02 05:12:00,
2013-03-02 00:17:00,24.1,17.3,29.86,NW,313,10.1,13.2,75,0.00,,,0.00,VWS V14.01,2013-03-02 05:17:00,
2013-03-02 00:22:00,24.1,17.6,29.86,NW,311,4.0,8.3,76,0.00,,,0.00,VWS V14.01,2013-03-02 05:22:00,
2013-03-02 00:27:00,24.1,17.6,29.86,NW,305,5.4,5.8,76,0.00,,,0.00,VWS V14.01,2013-03-02 05:27:00,
2013-03-02 00:32:00,23.9,17.8,29.86,WNW,303,8.7,9.2,77,0.00,,,0.00,VWS V14.01,2013-03-02 05:32:00,
2013-03-02 00:37:00,23.9,17.5,29.86,NW,326,6.3,6.3,76,0.00,,,0.00,VWS V14.01,2013-03-02 05:37:00,
2013-03-02 00:42:00,23.9,17.8,29.86,NW,309,10.1,10.1,77,0.00,,,0.00,VWS V14.01,2013-03-02 05:42:00,
2013-03-02 00:47:00,23.9,17.8,29.86,NW,320,7.6,8.1,77,0.00,,,0.00,VWS V14.01,2013-03-02 05:47:00,
2013-03-02 00:52:00,23.7,17.6,29.86,NNW,332,4.0,10.1,77,0.00,,,0.00,VWS V14.01,2013-03-02 05:52:00,
2013-03-02 00:57:00,23.7,17.9,29.86,West,281,3.6,8.7,78,0.00,,,0.00,VWS V14.01,2013-03-02 05:57:00,
2013-03-02 01:02:00,23.7,17.9,29.86,WNW,292,4.0,8.1,78,0.00,,,0.00,VWS V14.01,2013-03-02 06:02:00,
2013-03-02 01:07:00,23.7,17.9,29.86,WNW,290,4.0,8.7,78,0.00,,,0.00,VWS V14.01,2013-03-02 06:07:00,
2013-03-02 01:12:00,23.7,17.9,29.86,NW,304,8.1,8.7,78,0.00,,,0.00,VWS V14.01,2013-03-02 06:12:00,
2013-03-02 01:17:00,23.7,18.2,29.86,WNW,290,4.0,7.2,79,0.00,,,0.00,VWS V14.01,2013-03-02 06:17:00,
2013-03-02 01:22:00,23.7,18.2,29.86,NW,322,5.8,8.7,79,0.00,,,0.00,VWS V14.01,2013-03-02 06:22:00,
2013-03-02 01:27:00,23.7,18.2,29.86,NW,306,4.0,8.1,79,0.00,,,0.00,VWS V14.01,2013-03-02 06:27:00,
2013-03-02 01:32:00,23.7,18.2,29.86,WNW,289,5.8,9.6,79,0.00,,,0.00,VWS V14.01,2013-03-02 06:32:00,
2013-03-02 01:37:00,23.7,18.5,29.86,NW,317,6.3,8.7,80,0.00,,,0.00,VWS V14.01,2013-03-02 06:37:00,
2013-03-02 01:42:00,23.7,18.5,29.86,NNW,328,5.4,8.1,80,0.00,,,0.00,VWS V14.01,2013-03-02 06:42:00,
2013-03-02 01:47:00,23.7,18.5,29.86,NW,321,4.0,7.6,80,0.00,,,0.00,VWS V14.01,2013-03-02 06:47:00,
2013-03-02 01:52:00,23.9,18.6,29.86,NNW,336,4.9,6.3,80,0.00,,,0.00,VWS V14.01,2013-03-02 06:52:00,
2013-03-02 01:57:00,23.9,18.6,29.86,NNW,335,10.5,11.0,80,0.00,,,0.00,VWS V14.01,2013-03-02 06:57:00,
2013-03-02 02:02:00,23.7,18.2,29.86,North,0,8.7,9.2,79,0.00,,,0.00,VWS V14.01,2013-03-02 07:02:00,
2013-03-02 02:07:00,23.7,17.9,29.86,North,357,8.7,13.6,78,0.00,,,0.00,VWS V14.01,2013-03-02 07:07:00,
2013-03-02 02:12:00,23.7,17.6,29.86,NNW,342,6.3,11.9,77,0.00,,,0.00,VWS V14.01,2013-03-02 07:12:00,
2013-03-02 02:17:00,23.7,17.6,29.86,North,4,5.8,8.7,77,0.00,,,0.00,VWS V14.01,2013-03-02 07:17:00,
2013-03-02 02:22:00,23.5,17.4,29.86,North,0,7.6,8.7,77,0.00,,,0.00,VWS V14.01,2013-03-02 07:22:00,
2013-03-02 02:27:00,23.5,17.4,29.86,North,357,8.3,11.0,77,0.00,,,0.00,VWS V14.01,2013-03-02 07:27:00,
2013-03-02 02:32:00,23.5,17.4,29.86,NNW,342,6.3,8.7,77,0.00,,,0.00,VWS V14.01,2013-03-02 07:32:00,
2013-03-02 02:37:00,23.4,17.2,29.86,North,349,10.1,10.5,77,0.00,,,0.00,VWS V14.01,2013-03-02 07:37:00,
2013-03-02 02:42:00,23.2,17.0,29.86,North,353,8.7,9.2,77,0.00,,,0.00,VWS V14.01,2013-03-02 07:42:00,
2013-03-02 02:47:00,23.2,17.0,29.86,NNW,342,8.1,8.7,77,0.00,,,0.00,VWS V14.01,2013-03-02 07:47:00,
2013-03-02 02:52:00,23.2,17.0,29.86,NNW,343,5.4,6.3,77,0.00,,,0.00,VWS V14.01,2013-03-02 07:52:00,
2013-03-02 02:57:00,23.2,17.0,29.86,NNW,336,6.7,7.6,77,0.00,,,0.00,VWS V14.01,2013-03-02 07:57:00,
2013-03-02 03:02:00,23.0,16.9,29.86,North,357,7.6,11.0,77,0.00,,,0.00,VWS V14.01,2013-03-02 08:02:00,
2013-03-02 03:07:00,23.0,16.9,29.86,North,353,5.8,8.1,77,0.00,,,0.00,VWS V14.01,2013-03-02 08:07:00,
2013-03-02 03:12:00,22.8,16.7,29.86,NNW,332,9.2,13.6,77,0.00,,,0.00,VWS V14.01,2013-03-02 08:12:00,
2013-03-02 03:18:00,22.8,16.7,29.86,NNW,329,10.5,10.5,77,0.00,,,0.00,VWS V14.01,2013-03-02 08:18:00,
2013-03-02 03:23:00,22.8,16.7,29.86,North,353,6.3,10.1,77,0.00,,,0.00,VWS V14.01,2013-03-02 08:23:00,
2013-03-02 03:28:00,22.6,16.2,29.86,North,353,6.3,8.3,76,0.00,,,0.00,VWS V14.01,2013-03-02 08:28:00,
2013-03-02 03:33:00,22.6,16.5,29.86,NNW,342,8.7,8.7,77,0.00,,,0.00,VWS V14.01,2013-03-02 08:33:00,
2013-03-02 03:38:00,22.6,16.5,29.86,NNW,343,7.6,8.1,77,0.00,,,0.00,VWS V14.01,2013-03-02 08:38:00,
2013-03-02 03:43:00,22.5,16.6,29.86,WNW,295,10.5,12.3,78,0.00,,,0.00,VWS V14.01,2013-03-02 08:43:00,
2013-03-02 03:48:00,22.3,16.8,29.86,West,280,5.8,12.3,79,0.00,,,0.00,VWS V14.01,2013-03-02 08:48:00,
2013-03-02 03:53:00,22.1,16.6,29.86,NNW,337,5.8,8.7,79,0.00,,,0.00,VWS V14.01,2013-03-02 08:53:00,
2013-03-02 03:58:00,22.3,16.8,29.86,North,353,4.0,7.6,79,0.00,,,0.00,VWS V14.01,2013-03-02 08:58:00,
2013-03-02 04:03:00,22.1,16.3,29.86,NW,316,8.3,10.1,78,0.00,,,0.00,VWS V14.01,2013-03-02 09:03:00,
2013-03-02 04:08:00,21.9,16.1,29.86,North,350,10.5,11.0,78,0.00,,,0.00,VWS V14.01,2013-03-02 09:08:00,
2013-03-02 04:13:00,21.9,16.1,29.86,NW,317,13.2,13.2,78,0.00,,,0.00,VWS V14.01,2013-03-02 09:13:00,
2013-03-02 04:18:00,21.7,15.6,29.86,North,353,8.3,8.7,77,0.00,,,0.00,VWS V14.01,2013-03-02 09:18:00,
2013-03-02 04:23:00,21.7,15.6,29.86,NNW,343,8.7,11.0,77,0.00,,,0.00,VWS V14.01,2013-03-02 09:23:00,
2013-03-02 04:28:00,21.7,15.6,29.86,NNW,338,7.6,14.1,77,0.00,,,0.00,VWS V14.01,2013-03-02 09:28:00,
2013-03-02 04:33:00,21.7,15.9,29.86,NW,325,5.8,10.1,78,0.00,,,0.00,VWS V14.01,2013-03-02 09:33:00,
2013-03-02 04:38:00,21.7,15.9,29.86,WNW,302,6.3,8.3,78,0.00,,,0.00,VWS V14.01,2013-03-02 09:38:00,
2013-03-02 04:43:00,21.4,15.3,29.86,NNW,342,8.3,11.0,77,0.00,,,0.00,VWS V14.01,2013-03-02 09:43:00,
2013-03-02 04:48:00,21.4,15.0,29.86,NW,307,12.3,12.3,76,0.00,,,0.00,VWS V14.01,2013-03-02 09:48:00,
2013-03-02 04:53:00,21.2,14.8,29.86,NNW,341,5.8,9.6,76,0.00,,,0.00,VWS V14.01,2013-03-02 09:53:00,
2013-03-02 04:58:00,21.2,14.8,29.86,NNW,328,7.6,8.7,76,0.00,,,0.00,VWS V14.01,2013-03-02 09:58:00,
2013-03-02 05:03:00,21.2,15.1,29.86,NW,321,5.4,8.7,77,0.00,,,0.00,VWS V14.01,2013-03-02 10:03:00,
2013-03-02 05:09:00,21.2,14.8,29.86,NW,326,12.8,12.8,76,0.00,,,0.00,VWS V14.01,2013-03-02 10:09:00,
2013-03-02 05:15:00,21.0,14.4,29.86,NW,319,6.3,8.3,75,0.00,,,0.00,VWS V14.01,2013-03-02 10:15:00,
2013-03-02 05:21:00,20.8,13.9,29.86,NNW,339,8.3,10.5,74,0.00,,,0.00,VWS V14.01,2013-03-02 10:21:00,
2013-03-02 05:26:00,21.0,14.1,29.86,NW,317,4.9,5.8,74,0.00,,,0.00,VWS V14.01,2013-03-02 10:26:00,
2013-03-02 05:31:00,20.8,13.6,29.86,NW,320,9.2,10.5,73,0.00,,,0.00,VWS V14.01,2013-03-02 10:31:00,
2013-03-02 05:36:00,20.5,12.9,29.86,WNW,290,11.0,11.0,72,0.00,,,0.00,VWS V14.01,2013-03-02 10:36:00,
2013-03-02 05:41:00,20.5,12.9,29.86,NW,317,10.1,11.4,72,0.00,,,0.00,VWS V14.01,2013-03-02 10:41:00,
2013-03-02 05:46:00,20.5,12.9,29.86,WNW,286,10.1,11.4,72,0.00,,,0.00,VWS V14.01,2013-03-02 10:46:00,
2013-03-02 05:51:00,20.5,13.2,29.86,NW,318,5.8,8.1,73,0.00,,,0.00,VWS V14.01,2013-03-02 10:51:00,
2013-03-02 05:56:00,20.5,13.2,29.86,NW,322,10.5,10.5,73,0.00,,,0.00,VWS V14.01,2013-03-02 10:56:00,
2013-03-02 06:01:00,20.3,13.0,29.86,NW,314,8.1,11.0,73,0.00,,,0.00,VWS V14.01,2013-03-02 11:01:00,
2013-03-02 06:06:00,20.3,13.0,29.86,NNW,332,8.7,11.0,73,0.00,,,0.00,VWS V14.01,2013-03-02 11:06:00,
2013-03-02 06:11:00,20.3,13.0,29.86,NW,311,8.7,10.5,73,0.00,,,0.00,VWS V14.01,2013-03-02 11:11:00,
2013-03-02 06:16:00,20.1,12.9,29.86,NNW,334,5.4,8.3,73,0.00,,,0.00,VWS V14.01,2013-03-02 11:16:00,
2013-03-02 06:21:00,20.1,12.9,29.86,NW,323,11.0,11.0,73,0.00,,,0.00,VWS V14.01,2013-03-02 11:21:00,
2013-03-02 06:26:00,19.9,12.4,29.86,NNW,328,4.9,10.1,72,0.00,,,0.00,VWS V14.01,2013-03-02 11:26:00,
2013-03-02 06:31:00,19.9,12.4,29.86,West,280,8.7,8.7,72,0.00,,,0.00,VWS V14.01,2013-03-02 11:31:00,
2013-03-02 06:36:00,19.9,12.4,29.86,NW,306,5.4,5.4,72,0.00,,,0.00,VWS V14.01,2013-03-02 11:36:00,
2013-03-02 06:41:00,19.9,12.7,29.86,NW,308,5.4,6.7,73,0.00,,,0.00,VWS V14.01,2013-03-02 11:41:00,
2013-03-02 06:46:00,19.9,12.7,29.86,NW,306,3.6,5.8,73,0.00,,,0.00,VWS V14.01,2013-03-02 11:46:00,
2013-03-02 06:51:00,19.9,13.0,29.86,WNW,292,8.1,8.1,74,0.00,,,0.00,VWS V14.01,2013-03-02 11:51:00,
2013-03-02 06:56:00,19.9,13.0,29.86,WNW,282,4.5,7.6,74,0.00,,,0.00,VWS V14.01,2013-03-02 11:56:00,
2013-03-02 07:01:00,19.9,13.0,29.86,West,274,7.2,8.3,74,0.00,,,0.00,VWS V14.01,2013-03-02 12:01:00,
2013-03-02 07:06:00,19.9,13.0,29.89,NNW,329,4.9,8.1,74,0.00,,,0.00,VWS V14.01,2013-03-02 12:06:00,
2013-03-02 07:11:00,19.9,13.0,29.89,WNW,287,5.4,8.3,74,0.00,,,0.00,VWS V14.01,2013-03-02 12:11:00,
2013-03-02 07:16:00,20.1,13.5,29.89,WNW,290,5.4,5.4,75,0.00,,,0.00,VWS V14.01,2013-03-02 12:16:00,
2013-03-02 07:21:00,20.1,13.5,29.89,NNW,330,9.6,9.6,75,0.00,,,0.00,VWS V14.01,2013-03-02 12:21:00,
2013-03-02 07:26:00,19.9,13.3,29.89,West,266,5.4,7.6,75,0.00,,,0.00,VWS V14.01,2013-03-02 12:26:00,
2013-03-02 07:31:00,20.1,13.8,29.89,NW,317,3.6,7.6,76,0.00,,,0.00,VWS V14.01,2013-03-02 12:31:00,
2013-03-02 07:36:00,20.1,13.8,29.89,West,265,5.4,5.4,76,0.00,,,0.00,VWS V14.01,2013-03-02 12:36:00,
2013-03-02 07:41:00,20.3,14.0,29.89,NW,315,5.4,5.4,76,0.00,,,0.00,VWS V14.01,2013-03-02 12:41:00,
2013-03-02 07:47:00,20.3,14.0,29.89,West,281,4.0,7.6,76,0.00,,,0.00,VWS V14.01,2013-03-02 12:47:00,
2013-03-02 07:52:00,20.3,14.3,29.89,WNW,293,3.1,5.8,77,0.00,,,0.00,VWS V14.01,2013-03-02 12:52:00,
2013-03-02 07:57:00,20.3,14.3,29.89,WNW,294,2.7,7.6,77,0.00,,,0.00,VWS V14.01,2013-03-02 12:57:00,
2013-03-02 08:02:00,20.3,14.3,29.89,WNW,286,3.6,7.6,77,0.00,,,0.00,VWS V14.01,2013-03-02 13:02:00,
2013-03-02 08:07:00,20.3,14.3,29.89,WNW,284,6.7,8.3,77,0.00,,,0.00,VWS V14.01,2013-03-02 13:07:00,
2013-03-02 08:12:00,20.5,14.4,29.89,NW,304,3.6,5.8,77,0.00,,,0.00,VWS V14.01,2013-03-02 13:12:00,
2013-03-02 08:17:00,20.5,14.4,29.89,NW,325,5.4,6.3,77,0.00,,,0.00,VWS V14.01,2013-03-02 13:17:00,
2013-03-02 08:22:00,20.5,14.4,29.89,NW,307,8.3,8.3,77,0.00,,,0.00,VWS V14.01,2013-03-02 13:22:00,
2013-03-02 08:27:00,20.5,14.7,29.89,WNW,300,4.9,8.1,78,0.00,,,0.00,VWS V14.01,2013-03-02 13:27:00,
2013-03-02 08:32:00,20.5,14.4,29.89,NNW,332,3.6,10.1,77,0.00,,,0.00,VWS V14.01,2013-03-02 13:32:00,
2013-03-02 08:37:00,20.5,14.4,29.89,NW,306,4.0,8.7,77,0.00,,,0.00,VWS V14.01,2013-03-02 13:37:00,
2013-03-02 08:42:00,20.7,14.6,29.89,NW,308,5.8,8.1,77,0.00,,,0.00,VWS V14.01,2013-03-02 13:42:00,
2013-03-02 08:47:00,20.8,15.1,29.89,NW,317,5.4,8.1,78,0.00,,,0.00,VWS V14.01,2013-03-02 13:47:00,
2013-03-02 08:52:00,20.8,15.1,29.89,NNW,339,5.4,8.7,78,0.00,,,0.00,VWS V14.01,2013-03-02 13:52:00,
2013-03-02 08:57:00,21.2,15.4,29.89,NW,308,3.6,6.3,78,0.00,,,0.00,VWS V14.01,2013-03-02 13:57:00,
2013-03-02 09:02:00,21.4,15.6,29.89,West,280,7.6,7.6,78,0.00,,,0.00,VWS V14.01,2013-03-02 14:02:00,
2013-03-02 09:07:00,21.2,15.1,29.89,NW,309,5.8,10.5,77,0.00,,,0.00,VWS V14.01,2013-03-02 14:07:00,
2013-03-02 09:12:00,21.4,15.0,29.89,West,278,8.1,9.2,76,0.00,,,0.00,VWS V14.01,2013-03-02 14:12:00,
2013-03-02 09:17:00,21.4,14.7,29.89,NNW,337,6.3,10.1,75,0.00,,,0.00,VWS V14.01,2013-03-02 14:17:00,
2013-03-02 09:22:00,21.7,15.1,29.89,West,272,8.7,8.7,75,0.00,,,0.00,VWS V14.01,2013-03-02 14:22:00,
2013-03-02 09:27:00,21.9,15.2,29.89,WNW,295,5.8,10.1,75,0.00,,,0.00,VWS V14.01,2013-03-02 14:27:00,
2013-03-02 09:32:00,22.1,15.1,29.89,NNW,329,8.1,8.1,74,0.00,,,0.00,VWS V14.01,2013-03-02 14:32:00,
2013-03-02 09:37:00,22.3,15.0,29.89,NW,306,7.6,7.6,73,0.00,,,0.00,VWS V14.01,2013-03-02 14:37:00,
2013-03-02 09:42:00,22.1,14.1,29.89,NW,325,8.1,8.1,71,0.00,,,0.00,VWS V14.01,2013-03-02 14:42:00,
2013-03-02 09:47:00,21.9,13.3,29.89,NNW,336,11.4,11.4,69,0.00,,,0.00,VWS V14.01,2013-03-02 14:47:00,
2013-03-02 09:52:00,22.5,13.8,29.89,WNW,288,2.7,6.7,69,0.00,,,0.00,VWS V14.01,2013-03-02 14:52:00,
2013-03-02 09:57:00,22.6,14.0,29.89,NNW,335,5.4,7.6,69,0.00,,,0.00,VWS V14.01,2013-03-02 14:57:00,
2013-03-02 10:02:00,22.3,13.0,29.89,West,278,5.8,10.1,67,0.00,,,0.00,VWS V14.01,2013-03-02 15:02:00,
2013-03-02 10:07:00,22.3,12.7,29.86,WNW,303,5.8,8.1,66,0.00,,,0.00,VWS V14.01,2013-03-02 15:07:00,
2013-03-02 10:12:00,22.3,12.7,29.86,NNW,336,5.8,8.7,66,0.00,,,0.00,VWS V14.01,2013-03-02 15:12:00,
2013-03-02 10:17:00,22.5,13.2,29.86,NW,305,7.6,11.0,67,0.00,,,0.00,VWS V14.01,2013-03-02 15:17:00,
2013-03-02 10:22:00,22.5,12.8,29.86,NW,304,5.4,8.3,66,0.00,,,0.00,VWS V14.01,2013-03-02 15:22:00,
2013-03-02 10:27:00,22.6,13.0,29.86,NW,304,8.1,10.5,66,0.00,,,0.00,VWS V14.01,2013-03-02 15:27:00,
2013-03-02 10:32:00,22.8,13.2,29.86,WNW,295,7.2,7.2,66,0.00,,,0.00,VWS V14.01,2013-03-02 15:32:00,
2013-03-02 10:37:00,22.8,13.2,29.86,WNW,293,8.1,11.0,66,0.00,,,0.00,VWS V14.01,2013-03-02 15:37:00,
2013-03-02 10:42:00,23.2,13.5,29.86,NW,307,8.7,12.3,66,0.00,,,0.00,VWS V14.01,2013-03-02 15:42:00,
2013-03-02 10:47:00,22.8,13.2,29.86,NNW,340,7.6,7.6,66,0.00,,,0.00,VWS V14.01,2013-03-02 15:47:00,
2013-03-02 10:52:00,22.8,12.8,29.86,West,266,3.1,11.0,65,0.00,,,0.00,VWS V14.01,2013-03-02 15:52:00,
2013-03-02 10:57:00,23.2,13.2,29.86,WSW,246,3.6,8.7,65,0.00,,,0.00,VWS V14.01,2013-03-02 15:57:00,
2013-03-02 11:03:00,23.0,13.0,29.86,WNW,287,7.6,10.5,65,0.00,,,0.00,VWS V14.01,2013-03-02 16:03:00,
2013-03-02 11:08:00,23.4,13.4,29.86,WSW,251,5.4,10.1,65,0.00,,,0.00,VWS V14.01,2013-03-02 16:08:00,
2013-03-02 11:13:00,23.2,12.8,29.86,NW,325,3.6,10.5,64,0.00,,,0.00,VWS V14.01,2013-03-02 16:13:00,
2013-03-02 11:18:00,23.0,12.6,29.86,NNW,340,8.3,11.0,64,0.00,,,0.00,VWS V14.01,2013-03-02 16:18:00,
2013-03-02 11:23:00,23.4,13.0,29.86,WNW,302,8.3,8.7,64,0.00,,,0.00,VWS V14.01,2013-03-02 16:23:00,
2013-03-02 11:28:00,23.5,12.8,29.86,WSW,254,6.3,8.1,63,0.00,,,0.00,VWS V14.01,2013-03-02 16:28:00,
2013-03-02 11:33:00,23.5,12.4,29.86,NNW,345,6.3,11.0,62,0.00,,OVC015,0.00,VWS V14.01,2013-03-02 16:33:00,
2013-03-02 11:38:00,23.5,12.4,29.86,NNW,335,8.7,10.5,62,0.00,,OVC015,0.00,VWS V14.01,2013-03-02 16:38:00,
2013-03-02 11:43:00,23.9,13.1,29.86,West,277,3.6,8.7,63,0.00,,OVC015,0.00,VWS V14.01,2013-03-02 16:43:00,
2013-03-02 11:48:00,23.5,12.4,29.86,NW,315,5.4,11.0,62,0.00,,OVC015,0.00,VWS V14.01,2013-03-02 16:48:00,
2013-03-02 11:53:00,23.5,12.4,29.86,WNW,299,8.3,11.0,62,0.00,,OVC015,0.00,VWS V14.01,2013-03-02 16:53:00,
2013-03-02 11:58:00,23.0,11.6,29.86,NW,314,5.8,12.3,61,0.00,,OVC015,0.00,VWS V14.01,2013-03-02 16:58:00,
2013-03-02 12:03:00,23.2,11.7,29.86,WNW,289,10.5,10.5,61,0.00,,OVC015,0.00,VWS V14.01,2013-03-02 17:03:00,
2013-03-02 12:08:00,23.5,12.8,29.86,NNW,344,8.1,8.1,63,0.00,,OVC015,0.00,VWS V14.01,2013-03-02 17:08:00,
2013-03-02 12:13:00,23.2,12.5,29.86,NNW,342,7.6,8.3,63,0.00,,OVC015,0.00,VWS V14.01,2013-03-02 17:13:00,
2013-03-02 12:18:00,23.2,12.5,29.86,WNW,296,5.4,10.5,63,0.00,,OVC015,0.00,VWS V14.01,2013-03-02 17:18:00,
2013-03-02 12:23:00,23.2,12.5,29.86,NNW,345,8.3,10.5,63,0.00,,OVC015,0.00,VWS V14.01,2013-03-02 17:23:00,
2013-03-02 12:28:00,23.2,12.5,29.86,NNW,342,8.7,10.1,63,0.00,,OVC015,0.00,VWS V14.01,2013-03-02 17:28:00,
2013-03-02 12:33:00,23.2,12.8,29.86,NNW,348,6.3,8.3,64,0.00,,,0.00,VWS V14.01,2013-03-02 17:33:00,
2013-03-02 12:38:00,23.0,12.6,29.86,WNW,303,8.7,8.7,64,0.00,,,0.00,VWS V14.01,2013-03-02 17:38:00,
2013-03-02 12:43:00,23.2,13.2,29.86,West,281,8.7,8.7,65,0.00,,,0.00,VWS V14.01,2013-03-02 17:43:00,
2013-03-02 12:48:00,22.8,12.8,29.86,WNW,300,7.6,10.1,65,0.00,,,0.00,VWS V14.01,2013-03-02 17:48:00,
2013-03-02 12:53:00,22.8,13.2,29.86,NNW,335,3.6,12.3,66,0.00,,,0.00,VWS V14.01,2013-03-02 17:53:00,
2013-03-02 12:58:00,23.2,13.5,29.86,NNW,327,5.4,8.7,66,0.00,,,0.00,VWS V14.01,2013-03-02 17:58:00,
2013-03-02 13:03:00,23.2,13.5,29.86,NW,316,7.6,8.7,66,0.00,,,0.00,VWS V14.01,2013-03-02 18:03:00,
2013-03-02 13:08:00,23.2,13.5,29.86,WNW,284,8.1,8.3,66,0.00,,,0.00,VWS V14.01,2013-03-02 18:08:00,
2013-03-02 13:13:00,23.0,13.4,29.86,NNW,329,12.8,12.8,66,0.00,,,0.00,VWS V14.01,2013-03-02 18:13:00,
2013-03-02 13:18:00,23.0,13.4,29.86,WNW,294,9.6,10.1,66,0.00,,,0.00,VWS V14.01,2013-03-02 18:18:00,
2013-03-02 13:23:00,23.0,13.4,29.86,SW,216,10.1,13.2,66,0.00,,,0.00,VWS V14.01,2013-03-02 18:23:00,
2013-03-02 13:28:00,23.4,13.7,29.86,WNW,302,6.3,7.6,66,0.00,,,0.00,VWS V14.01,2013-03-02 18:28:00,
2013-03-02 13:34:00,23.0,13.4,29.86,West,278,8.3,11.0,66,0.00,,,0.00,VWS V14.01,2013-03-02 18:34:00,
2013-03-02 13:39:00,23.2,13.5,29.83,West,280,3.6,8.3,66,0.00,,,0.00,VWS V14.01,2013-03-02 18:39:00,
2013-03-02 13:44:00,23.4,13.7,29.83,NNW,331,5.8,10.5,66,0.00,,,0.00,VWS V14.01,2013-03-02 18:44:00,
2013-03-02 13:49:00,23.5,13.9,29.83,WNW,286,7.6,8.1,66,0.00,,,0.00,VWS V14.01,2013-03-02 18:49:00,
2013-03-02 13:54:00,23.4,13.7,29.83,NW,314,8.7,10.5,66,0.00,,,0.00,VWS V14.01,2013-03-02 18:54:00,
2013-03-02 13:59:00,23.0,13.0,29.83,WNW,303,6.3,11.0,65,0.00,,,0.00,VWS V14.01,2013-03-02 18:59:00,
2013-03-02 14:04:00,23.4,13.4,29.83,NNW,332,10.5,12.8,65,0.00,,,0.00,VWS V14.01,2013-03-02 19:04:00,
2013-03-02 14:09:00,23.5,13.9,29.83,NNW,340,8.1,9.6,66,0.00,,,0.00,VWS V14.01,2013-03-02 19:09:00,
2013-03-02 14:14:00,23.5,13.9,29.83,West,270,8.3,11.0,66,0.00,,,0.00,VWS V14.01,2013-03-02 19:14:00,
2013-03-02 14:19:00,23.5,13.5,29.83,West,279,10.5,12.3,65,0.00,,,0.00,VWS V14.01,2013-03-02 19:19:00,
2013-03-02 14:24:00,23.5,13.5,29.83,West,259,9.2,11.0,65,0.00,,,0.00,VWS V14.01,2013-03-02 19:24:00,
2013-03-02 14:29:00,23.7,13.7,29.83,WNW,297,5.8,12.8,65,0.00,,,0.00,VWS V14.01,2013-03-02 19:29:00,
2013-03-02 14:34:00,23.9,13.9,29.83,NW,307,5.4,11.4,65,0.00,,,0.00,VWS V14.01,2013-03-02 19:34:00,
2013-03-02 14:39:00,24.3,14.2,29.83,NW,308,3.6,9.2,65,0.00,,,0.00,VWS V14.01,2013-03-02 19:39:00,
2013-03-02 14:44:00,23.9,13.9,29.83,NNW,339,9.2,13.2,65,0.00,,,0.00,VWS V14.01,2013-03-02 19:44:00,
2013-03-02 14:49:00,23.5,13.2,29.83,WNW,295,8.1,12.8,64,0.00,,,0.00,VWS V14.01,2013-03-02 19:49:00,
2013-03-02 14:54:00,23.4,13.4,29.83,NNW,331,5.4,8.7,65,0.00,,,0.00,VWS V14.01,2013-03-02 19:54:00,
2013-03-02 15:00:00,23.5,13.5,29.83,NW,314,5.4,12.3,65,0.00,,,0.00,VWS V14.01,2013-03-02 20:00:00,
2013-03-02 15:05:00,23.5,13.9,29.83,West,273,8.7,11.4,66,0.00,,,0.00,VWS V14.01,2013-03-02 20:05:00,
2013-03-02 15:10:00,23.7,14.0,29.83,NW,311,5.4,11.9,66,0.00,,,0.00,VWS V14.01,2013-03-02 20:10:00,
2013-03-02 15:15:00,23.5,13.9,29.83,NW,313,5.4,10.1,66,0.00,,,0.00,VWS V14.01,2013-03-02 20:15:00,
2013-03-02 15:20:00,23.5,13.9,29.83,NW,326,8.1,12.8,66,0.00,,,0.00,VWS V14.01,2013-03-02 20:20:00,
2013-03-02 15:25:00,23.5,13.9,29.83,NNW,340,7.6,10.1,66,0.00,,,0.00,VWS V14.01,2013-03-02 20:25:00,
2013-03-02 15:30:00,23.5,13.9,29.83,NW,320,10.1,15.0,66,0.00,,,0.00,VWS V14.01,2013-03-02 20:30:00,
2013-03-02 15:35:00,23.5,13.9,29.83,NNW,329,11.4,11.4,66,0.00,,,0.00,VWS V14.01,2013-03-02 20:35:00,
2013-03-02 15:40:00,23.5,13.9,29.83,NW,312,8.7,11.0,66,0.00,,,0.00,VWS V14.01,2013-03-02 20:40:00,
2013-03-02 15:45:00,23.5,13.9,29.83,WNW,303,4.0,6.3,66,0.00,,,0.00,VWS V14.01,2013-03-02 20:45:00,
2013-03-02 15:50:00,23.5,14.2,29.83,NNW,332,4.9,6.3,67,0.00,,,0.00,VWS V14.01,2013-03-02 20:50:00,
2013-03-02 15:55:00,23.5,13.9,29.83,West,278,7.6,7.6,66,0.00,,,0.00,VWS V14.01,2013-03-02 20:55:00,
2013-03-02 16:00:00,23.5,13.9,29.83,WNW,295,5.4,5.8,66,0.00,,,0.00,VWS V14.01,2013-03-02 21:00:00,
2013-03-02 16:05:00,23.5,14.2,29.83,WNW,291,3.6,4.9,67,0.00,,,0.00,VWS V14.01,2013-03-02 21:05:00,
2013-03-02 16:10:00,23.5,14.2,29.83,West,274,5.4,9.6,67,0.00,,,0.00,VWS V14.01,2013-03-02 21:10:00,
2013-03-02 16:15:00,23.5,14.2,29.83,WSW,249,5.8,5.8,67,0.00,,,0.00,VWS V14.01,2013-03-02 21:15:00,
2013-03-02 16:20:00,23.5,14.2,29.83,NNW,329,10.1,10.1,67,0.00,,,0.00,VWS V14.01,2013-03-02 21:20:00,
2013-03-02 16:25:00,23.5,14.6,29.83,WSW,253,5.8,5.8,68,0.00,,,0.00,VWS V14.01,2013-03-02 21:25:00,
2013-03-02 16:30:00,23.5,14.6,29.83,NW,320,4.9,7.6,68,0.00,,,0.00,VWS V14.01,2013-03-02 21:30:00,
2013-03-02 16:35:00,23.5,14.6,29.83,WNW,286,7.6,8.3,68,0.00,,,0.00,VWS V14.01,2013-03-02 21:35:00,
2013-03-02 16:40:00,23.4,14.4,29.83,West,277,3.1,8.7,68,0.00,,,0.00,VWS V14.01,2013-03-02 21:40:00,
2013-03-02 16:45:00,23.4,14.4,29.83,West,266,5.4,5.8,68,0.00,,,0.00,VWS V14.01,2013-03-02 21:45:00,
2013-03-02 16:50:00,23.4,14.4,29.83,West,281,6.3,8.1,68,0.00,,,0.00,VWS V14.01,2013-03-02 21:50:00,
2013-03-02 16:55:00,23.4,14.7,29.83,WNW,303,5.8,5.8,69,0.00,,,0.00,VWS V14.01,2013-03-02 21:55:00,
2013-03-02 17:00:00,23.4,15.0,29.83,WNW,296,3.1,5.8,70,0.00,,,0.00,VWS V14.01,2013-03-02 22:00:00,
2013-03-02 17:05:00,23.4,15.0,29.83,WNW,297,7.2,8.7,70,0.00,,,0.00,VWS V14.01,2013-03-02 22:05:00,
2013-03-02 17:11:00,23.4,15.0,29.83,West,261,5.8,8.3,70,0.00,,,0.00,VWS V14.01,2013-03-02 22:11:00,
2013-03-02 17:16:00,23.4,15.4,29.83,SSW,206,5.4,10.5,71,0.00,,,0.00,VWS V14.01,2013-03-02 22:16:00,
2013-03-02 17:21:00,23.4,15.7,29.83,NW,326,4.0,5.8,72,0.00,,,0.00,VWS V14.01,2013-03-02 22:21:00,
2013-03-02 17:26:00,23.4,15.7,29.83,NW,315,4.0,4.0,72,0.00,,,0.00,VWS V14.01,2013-03-02 22:26:00,
2013-03-02 17:31:00,23.4,15.7,29.83,WNW,283,5.8,6.3,72,0.00,,,0.00,VWS V14.01,2013-03-02 22:31:00,
2013-03-02 17:36:00,23.2,15.5,29.83,WNW,285,3.6,8.7,72,0.00,,,0.00,VWS V14.01,2013-03-02 22:36:00,
2013-03-02 17:41:00,23.2,15.5,29.83,WNW,297,5.8,8.7,72,0.00,,,0.00,VWS V14.01,2013-03-02 22:41:00,
2013-03-02 17:46:00,23.2,15.5,29.83,NNW,329,3.6,7.6,72,0.00,,,0.00,VWS V14.01,2013-03-02 22:46:00,
2013-03-02 17:51:00,23.2,15.5,29.83,West,266,5.8,10.1,72,0.00,,,0.00,VWS V14.01,2013-03-02 22:51:00,
2013-03-02 17:56:00,23.4,15.7,29.83,West,279,5.8,7.2,72,0.00,,,0.00,VWS V14.01,2013-03-02 22:56:00,
2013-03-02 18:01:00,23.2,15.5,29.83,SW,229,5.8,6.7,72,0.00,,,0.00,VWS V14.01,2013-03-02 23:01:00,
2013-03-02 18:06:00,23.2,15.5,29.83,WNW,285,5.8,10.1,72,0.00,,,0.00,VWS V14.01,2013-03-02 23:06:00,
2013-03-02 18:11:00,23.2,15.5,29.83,West,266,4.0,8.3,72,0.00,,,0.00,VWS V14.01,2013-03-02 23:11:00,
2013-03-02 18:16:00,23.2,15.8,29.83,West,278,5.8,6.7,73,0.00,,,0.00,VWS V14.01,2013-03-02 23:16:00,
2013-03-02 18:21:00,23.2,15.8,29.83,West,262,4.0,6.3,73,0.00,,,0.00,VWS V14.01,2013-03-02 23:21:00,
2013-03-02 18:26:00,23.2,15.8,29.83,WNW,284,2.7,6.3,73,0.00,,,0.00,VWS V14.01,2013-03-02 23:26:00,
2013-03-02 18:31:00,23.0,16.0,29.83,West,268,4.9,4.9,74,0.00,,,0.00,VWS V14.01,2013-03-02 23:31:00,
2013-03-02 18:36:00,23.0,16.0,29.83,NW,310,6.7,6.7,74,0.00,,,0.00,VWS V14.01,2013-03-02 23:36:00,
2013-03-02 18:41:00,23.0,16.0,29.83,West,269,5.8,7.6,74,0.00,,,0.00,VWS V14.01,2013-03-02 23:41:00,
2013-03-02 18:46:00,22.8,15.8,29.83,WNW,293,6.3,6.7,74,0.00,,,0.00,VWS V14.01,2013-03-02 23:46:00,
2013-03-02 18:51:00,22.8,16.1,29.83,WNW,282,3.6,8.1,75,0.00,,,0.00,VWS V14.01,2013-03-02 23:51:00,
2013-03-02 18:56:00,22.8,16.1,29.83,West,276,6.3,8.1,75,0.00,,,0.00,VWS V14.01,2013-03-02 23:56:00,
2013-03-02 19:01:00,22.8,16.1,29.83,WNW,285,5.8,6.7,75,0.00,,,0.00,VWS V14.01,2013-03-03 00:01:00,
2013-03-02 19:06:00,22.8,16.1,29.83,WNW,300,3.6,4.0,75,0.00,,,0.00,VWS V14.01,2013-03-03 00:06:00,
2013-03-02 19:11:00,22.8,16.4,29.83,West,268,4.9,4.9,76,0.00,,,0.00,VWS V14.01,2013-03-03 00:11:00,
2013-03-02 19:16:00,22.8,16.4,29.83,West,260,11.0,11.0,76,0.00,,,0.00,VWS V14.01,2013-03-03 00:16:00,
2013-03-02 19:21:00,22.8,16.4,29.83,WSW,248,7.2,7.2,76,0.00,,,0.00,VWS V14.01,2013-03-03 00:21:00,
2013-03-02 19:26:00,22.8,16.4,29.83,West,271,6.3,6.3,76,0.00,,,0.00,VWS V14.01,2013-03-03 00:26:00,
2013-03-02 19:31:00,22.8,16.4,29.83,West,271,8.1,8.1,76,0.00,,,0.00,VWS V14.01,2013-03-03 00:31:00,
2013-03-02 19:36:00,22.8,16.1,29.83,NW,308,3.6,5.8,75,0.00,,,0.00,VWS V14.01,2013-03-03 00:36:00,
2013-03-02 19:41:00,22.8,16.1,29.83,WNW,289,7.6,7.6,75,0.00,,,0.00,VWS V14.01,2013-03-03 00:41:00,
2013-03-02 19:46:00,22.8,16.1,29.83,WNW,297,2.2,4.0,75,0.00,,,0.00,VWS V14.01,2013-03-03 00:46:00,
2013-03-02 19:51:00,22.8,16.1,29.83,West,262,5.4,8.3,75,0.00,,,0.00,VWS V14.01,2013-03-03 00:51:00,
2013-03-02 19:56:00,22.8,16.1,29.83,WNW,286,4.9,5.4,75,0.00,,,0.00,VWS V14.01,2013-03-03 00:56:00,
2013-03-02 20:02:00,22.8,16.1,29.83,West,279,3.6,8.1,75,0.00,,,0.00,VWS V14.01,2013-03-03 01:02:00,
2013-03-02 20:07:00,22.8,15.8,29.83,West,280,6.3,8.3,74,0.00,,,0.00,VWS V14.01,2013-03-03 01:07:00,
2013-03-02 20:12:00,23.0,16.0,29.83,WNW,285,3.1,4.9,74,0.00,,,0.00,VWS V14.01,2013-03-03 01:12:00,
2013-03-02 20:17:00,23.0,16.0,29.83,WNW,296,6.3,8.3,74,0.00,,,0.00,VWS V14.01,2013-03-03 01:17:00,
2013-03-02 20:22:00,23.0,15.6,29.83,West,271,3.6,5.8,73,0.00,,,0.00,VWS V14.01,2013-03-03 01:22:00,
2013-03-02 20:27:00,23.0,15.6,29.83,West,266,5.4,6.3,73,0.00,,,0.00,VWS V14.01,2013-03-03 01:27:00,
2013-03-02 20:32:00,23.0,15.3,29.83,SW,235,4.0,6.3,72,0.00,,,0.00,VWS V14.01,2013-03-03 01:32:00,
2013-03-02 20:37:00,23.0,15.3,29.83,West,272,5.4,5.8,72,0.00,,,0.00,VWS V14.01,2013-03-03 01:37:00,
2013-03-02 20:42:00,23.0,15.3,29.83,WSW,238,3.1,7.6,72,0.00,,,0.00,VWS V14.01,2013-03-03 01:42:00,
2013-03-02 20:47:00,23.0,15.3,29.83,WNW,288,5.8,5.8,72,0.00,,,0.00,VWS V14.01,2013-03-03 01:47:00,
2013-03-02 20:52:00,23.0,15.3,29.83,West,276,5.4,8.7,72,0.00,,,0.00,VWS V14.01,2013-03-03 01:52:00,
2013-03-02 20:57:00,23.0,15.3,29.83,WNW,295,3.6,5.4,72,0.00,,,0.00,VWS V14.01,2013-03-03 01:57:00,
2013-03-02 21:02:00,23.0,15.3,29.83,West,277,5.4,8.1,72,0.00,,,0.00,VWS V14.01,2013-03-03 02:02:00,
2013-03-02 21:07:00,23.0,15.3,29.83,WNW,290,6.3,6.3,72,0.00,,,0.00,VWS V14.01,2013-03-03 02:07:00,
2013-03-02 21:12:00,23.0,15.6,29.83,West,275,4.0,4.0,73,0.00,,,0.00,VWS V14.01,2013-03-03 02:12:00,
2013-03-02 21:17:00,23.0,15.6,29.83,WNW,282,6.3,6.3,73,0.00,,,0.00,VWS V14.01,2013-03-03 02:17:00,
2013-03-02 21:22:00,22.8,15.5,29.83,WSW,257,3.6,8.3,73,0.00,,,0.00,VWS V14.01,2013-03-03 02:22:00,
2013-03-02 21:27:00,22.8,15.8,29.83,West,274,4.0,7.2,74,0.00,,,0.00,VWS V14.01,2013-03-03 02:27:00,
2013-03-02 21:32:00,22.8,15.8,29.83,WSW,256,5.4,9.2,74,0.00,,,0.00,VWS V14.01,2013-03-03 02:32:00,
2013-03-02 21:37:00,23.0,16.0,29.83,West,271,6.3,6.3,74,0.00,,,0.00,VWS V14.01,2013-03-03 02:37:00,
2013-03-02 21:42:00,22.8,16.1,29.83,West,268,6.3,8.1,75,0.00,,,0.00,VWS V14.01,2013-03-03 02:42:00,
2013-03-02 21:47:00,22.8,16.1,29.83,West,269,4.9,7.6,75,0.00,,,0.00,VWS V14.01,2013-03-03 02:47:00,
2013-03-02 21:52:00,22.8,16.1,29.83,WNW,285,2.7,8.1,75,0.00,,,0.00,VWS V14.01,2013-03-03 02:52:00,
2013-03-02 21:57:00,22.8,16.1,29.83,WNW,296,5.4,8.3,75,0.00,,,0.00,VWS V14.01,2013-03-03 02:57:00,
2013-03-02 22:02:00,22.8,16.1,29.83,WNW,299,3.1,7.2,75,0.00,,,0.00,VWS V14.01,2013-03-03 03:02:00,
2013-03-02 22:07:00,22.8,16.1,29.83,West,265,4.9,5.4,75,0.00,,,0.00,VWS V14.01,2013-03-03 03:07:00,
2013-03-02 22:12:00,22.8,16.4,29.83,West,269,3.6,5.4,76,0.00,,,0.00,VWS V14.01,2013-03-03 03:12:00,
2013-03-02 22:17:00,22.8,16.4,29.83,WNW,290,3.6,6.3,76,0.00,,,0.00,VWS V14.01,2013-03-03 03:17:00,
2013-03-02 22:22:00,22.8,16.4,29.83,WSW,257,5.8,5.8,76,0.00,,,0.00,VWS V14.01,2013-03-03 03:22:00,
2013-03-02 22:27:00,22.8,16.4,29.83,WSW,252,2.2,4.9,76,0.00,,,0.00,VWS V14.01,2013-03-03 03:27:00,
2013-03-02 22:32:00,22.8,16.4,29.83,West,267,3.6,5.8,76,0.00,,,0.00,VWS V14.01,2013-03-03 03:32:00,
2013-03-02 22:38:00,22.8,16.4,29.83,WNW,302,3.6,7.6,76,0.00,,,0.00,VWS V14.01,2013-03-03 03:38:00,
2013-03-02 22:44:00,22.8,16.1,29.83,NW,324,4.0,6.3,75,0.00,,,0.00,VWS V14.01,2013-03-03 03:44:00,
2013-03-02 22:49:00,22.8,15.8,29.83,NNW,331,8.3,8.3,74,0.00,,,0.00,VWS V14.01,2013-03-03 03:49:00,
2013-03-02 22:54:00,22.8,15.8,29.83,NNW,337,4.0,5.8,74,0.00,,,0.00,VWS V14.01,2013-03-03 03:54:00,
2013-03-02 22:59:00,22.8,15.5,29.83,WNW,297,3.6,5.8,73,0.00,,,0.00,VWS V14.01,2013-03-03 03:59:00,
2013-03-02 23:04:00,22.8,15.5,29.83,NW,325,3.6,8.1,73,0.00,,,0.00,VWS V14.01,2013-03-03 04:04:00,
2013-03-02 23:09:00,22.8,15.5,29.83,WNW,299,6.3,8.3,73,0.00,,,0.00,VWS V14.01,2013-03-03 04:09:00,
2013-03-02 23:14:00,22.8,15.5,29.83,NNW,333,3.6,8.3,73,0.00,,,0.00,VWS V14.01,2013-03-03 04:14:00,
2013-03-02 23:19:00,22.8,15.5,29.83,NW,324,5.4,6.3,73,0.00,,,0.00,VWS V14.01,2013-03-03 04:19:00,
2013-03-02 23:24:00,22.8,15.2,29.83,WNW,296,3.6,7.6,72,0.00,,,0.00,VWS V14.01,2013-03-03 04:24:00,
2013-03-02 23:29:00,22.8,15.5,29.83,WNW,297,2.7,6.3,73,0.00,,,0.00,VWS V14.01,2013-03-03 04:29:00,
2013-03-02 23:34:00,22.6,15.3,29.83,NW,307,5.4,8.1,73,0.00,,,0.00,VWS V14.01,2013-03-03 04:34:00,
2013-03-02 23:39:00,22.6,15.3,29.83,WSW,258,4.9,8.1,73,0.00,,,0.00,VWS V14.01,2013-03-03 04:39:00,
2013-03-02 23:44:00,22.6,15.3,29.83,NW,322,6.7,6.7,73,0.00,,,0.00,VWS V14.01,2013-03-03 04:44:00,
2013-03-02 23:49:00,22.6,15.3,29.83,WNW,302,2.7,8.1,73,0.00,,,0.00,VWS V14.01,2013-03-03 04:49:00,
2013-03-02 23:54:00,22.6,15.3,29.80,NW,309,2.7,6.3,73,0.00,,,0.00,VWS V14.01,2013-03-03 04:54:00,
2013-03-02 23:59:00,22.6,15.3,29.80,West,269,6.3,6.3,73,0.00,,,0.00,VWS V14.01,2013-03-03 04:59:00,